Total_Precipitation_Accumulation
0.03 0.03 0.02 0.02 0.03 0.06 0.11 0.15 0.17 0.15 0.11 0.11 0.12 0.14 0.17 0.22 0.24 0.23 0.19 0.15 0.14 0.19 0.33 0.32 0.32 0.39 0.43 0.41 0.56 0.67 0.67 0.50 0.68 0.76 0.34 0.14 0.09 0.08 0.06 0.05 0.03 0.03 0.03
0.03 0.02 0.01 0.01 0.01 0.01 0.02 0.03 0.03 0.03 0.02 0.02 0.04 0.05 0.07 0.10 0.11 0.12 0.13 0.11 0.14 0.18 0.24 0.25 0.26 0.30 0.34 0.34 0.38 0.47 0.51 0.43 0.68 0.77 0.61 0.31 0.14 0.08 0.05 0.06 0.06 0.06 0.07
0.04 0.02 0.02 0.02 0.01 0.01 0.01 0.01 0.01 0.02 0.01 0.01 0.01 0.02 0.03 0.04 0.05 0.05 0.06 0.07 0.11 0.15 0.16 0.17 0.21 0.26 0.28 0.31 0.35 0.47 0.57 0.48 0.53 0.72 0.80 0.55 0.27 0.22 0.16 0.17 0.20 0.20 0.20
0.03 0.03 0.02 0.02 0.02 0.01 0.01 0.01 0.01 0.02 0.02 0.02 0.02 0.03 0.04 0.03 0.03 0.04 0.05 0.06 0.08 0.08 0.09 0.12 0.23 0.30 0.35 0.39 0.39 0.43 0.50 0.51 0.46 0.51 0.61 0.65 0.60 0.50 0.27 0.19 0.20 0.24 0.25
0.04 0.04 0.04 0.03 0.02 0.01 0.01 0.01 0.01 0.03 0.03 0.04 0.05 0.04 0.02 0.02 0.02 0.03 0.05 0.05 0.05 0.05 0.05 0.06 0.11 0.22 0.31 0.35 0.36 0.37 0.42 0.46 0.45 0.43 0.45 0.53 0.59 0.57 0.44 0.25 0.18 0.22 0.22
0.11 0.11 0.08 0.05 0.03 0.01 0.01 0.01 0.02 0.03 0.03 0.04 0.05 0.05 0.04 0.04 0.03 0.04 0.06 0.07 0.06 0.05 0.04 0.05 0.08 0.13 0.15 0.19 0.25 0.28 0.31 0.33 0.36 0.37 0.41 0.44 0.45 0.46 0.51 0.42 0.31 0.26 0.28
0.12 0.13 0.11 0.07 0.05 0.04 0.03 0.02 0.02 0.03 0.04 0.04 0.05 0.05 0.05 0.06 0.05 0.06 0.08 0.08 0.08 0.08 0.08 0.09 0.13 0.18 0.19 0.18 0.21 0.25 0.28 0.32 0.33 0.34 0.37 0.40 0.42 0.48 0.52 0.49 0.39 0.33 0.37
0.08 0.09 0.08 0.06 0.05 0.04 0.03 0.03 0.02 0.02 0.02 0.02 0.04 0.04 0.05 0.06 0.07 0.11 0.14 0.12 0.09 0.09 0.13 0.17 0.18 0.18 0.20 0.24 0.30 0.34 0.36 0.36 0.36 0.33 0.37 0.40 0.41 0.45 0.48 0.50 0.47 0.41 0.45
0.04 0.04 0.04 0.04 0.03 0.02 0.02 0.01 0.01 0.02 0.01 0.01 0.02 0.03 0.04 0.07 0.11 0.14 0.14 0.10 0.08 0.07 0.07 0.12 0.20 0.21 0.22 0.27 0.35 0.38 0.39 0.41 0.44 0.44 0.46 0.46 0.44 0.41 0.42 0.46 0.47 0.45 0.46
0.02 0.02 0.02 0.02 0.02 0.01 0.01 0.01 0.01 0.01 0.01 0.00 0.00 0.02 0.06 0.12 0.18 0.21 0.16 0.10 0.08 0.06 0.06 0.09 0.14 0.17 0.19 0.25 0.37 0.44 0.47 0.52 0.55 0.51 0.50 0.54 0.52 0.46 0.45 0.44 0.44 0.44 0.46
0.01 0.01 0.01 0.01 0.01 0.01 0.01 0.01 0.01 0.01 0.01 0.01 0.01 0.06 0.15 0.18 0.24 0.36 0.33 0.16 0.09 0.06 0.06 0.06 0.06 0.06 0.08 0.13 0.27 0.47 0.55 0.61 0.60 0.58 0.57 0.55 0.52 0.45 0.39 0.39 0.39 0.37 0.37
0.00 0.00 0.00 0.00 0.00 0.01 0.01 0.01 0.01 0.01 0.01 0.01 0.01 0.04 0.14 0.19 0.22 0.28 0.29 0.20 0.13 0.08 0.05 0.04 0.03 0.03 0.05 0.11 0.24 0.40 0.52 0.62 0.68 0.64 0.60 0.47 0.38 0.34 0.32 0.34 0.34 0.29 0.27
0.00 0.00 0.00 0.00 0.01 0.01 0.01 0.01 0.01 0.01 0.01 0.01 0.02 0.04 0.06 0.07 0.08 0.10 0.14 0.17 0.17 0.16 0.11 0.07 0.06 0.11 0.17 0.24 0.32 0.37 0.46 0.56 0.60 0.57 0.49 0.38 0.34 0.31 0.31 0.29 0.28 0.23 0.19
0.00 0.00 0.00 0.00 0.00 0.00 0.00 0.00 0.01 0.01 0.01 0.02 0.03 0.03 0.03 0.02 0.02 0.05 0.09 0.15 0.16 0.15 0.11 0.09 0.12 0.18 0.25 0.30 0.31 0.32 0.36 0.38 0.42 0.41 0.34 0.27 0.25 0.24 0.25 0.23 0.19 0.16 0.14
0.01 0.01 0.01 0.01 0.01 0.01 0.01 0.01 0.01 0.01 0.02 0.03 0.08 0.08 0.05 0.04 0.03 0.05 0.06 0.08 0.09 0.08 0.08 0.10 0.14 0.19 0.22 0.25 0.27 0.27 0.24 0.26 0.24 0.20 0.18 0.15 0.16 0.18 0.18 0.14 0.10 0.09 0.08
0.02 0.02 0.02 0.02 0.01 0.01 0.01 0.01 0.01 0.01 0.03 0.06 0.12 0.15 0.11 0.05 0.02 0.02 0.03 0.04 0.04 0.04 0.06 0.08 0.09 0.10 0.12 0.17 0.20 0.17 0.12 0.09 0.09 0.08 0.08 0.08 0.09 0.10 0.12 0.10 0.07 0.05 0.04
0.03 0.02 0.01 0.01 0.00 0.01 0.01 0.02 0.02 0.02 0.08 0.11 0.10 0.16 0.16 0.05 0.02 0.02 0.02 0.04 0.03 0.04 0.07 0.07 0.06 0.05 0.06 0.06 0.06 0.06 0.05 0.04 0.03 0.04 0.04 0.05 0.05 0.05 0.05 0.06 0.03 0.02 0.01
0.01 0.00 0.00 0.00 0.00 0.00 0.00 0.02 0.04 0.04 0.11 0.14 0.10 0.16 0.16 0.07 0.05 0.05 0.05 0.05 0.05 0.07 0.10 0.10 0.07 0.06 0.04 0.02 0.01 0.01 0.02 0.02 0.02 0.01 0.02 0.04 0.05 0.04 0.03 0.03 0.02 0.01 0.00
0.00 0.00 0.00 0.00 0.00 0.00 0.01 0.02 0.07 0.09 0.10 0.11 0.10 0.15 0.19 0.13 0.11 0.10 0.10 0.09 0.10 0.12 0.14 0.14 0.11 0.09 0.06 0.01 0.01 0.01 0.01 0.01 0.01 0.01 0.01 0.01 0.02 0.02 0.02 0.02 0.02 0.01 0.00
0.00 0.00 0.00 0.00 0.01 0.01 0.02 0.03 0.05 0.09 0.10 0.10 0.10 0.15 0.24 0.24 0.20 0.18 0.17 0.15 0.17 0.21 0.22 0.21 0.16 0.12 0.09 0.02 0.00 0.00 0.01 0.02 0.01 0.00 0.00 0.00 0.00 0.00 0.00 0.01 0.01 0.00 0.00
0.00 0.01 0.01 0.01 0.01 0.03 0.04 0.06 0.07 0.08 0.10 0.12 0.14 0.18 0.26 0.35 0.33 0.30 0.25 0.23 0.23 0.28 0.34 0.36 0.30 0.20 0.12 0.03 0.00 0.00 0.02 0.02 0.01 0.00 0.00 0.00 0.00 0.00 0.00 0.00 0.00 0.00 0.00
0.01 0.02 0.03 0.04 0.05 0.07 0.10 0.13 0.13 0.14 0.16 0.16 0.18 0.23 0.32 0.34 0.37 0.37 0.36 0.37 0.35 0.39 0.45 0.50 0.47 0.36 0.20 0.06 0.01 0.01 0.01 0.01 0.01 0.00 0.00 0.00 0.00 0.00 0.00 0.00 0.00 0.00 0.00
0.02 0.03 0.04 0.06 0.09 0.12 0.19 0.23 0.24 0.26 0.25 0.22 0.22 0.26 0.32 0.39 0.49 0.49 0.45 0.47 0.49 0.53 0.59 0.62 0.57 0.47 0.31 0.11 0.02 0.01 0.01 0.01 0.01 0.00 0.00 0.00 0.00 0.00 0.00 0.00 0.00 0.00 0.00
0.02 0.03 0.05 0.08 0.12 0.20 0.29 0.34 0.35 0.34 0.30 0.25 0.24 0.27 0.32 0.38 0.47 0.57 0.59 0.62 0.64 0.66 0.70 0.70 0.62 0.54 0.40 0.16 0.04 0.01 0.01 0.01 0.01 0.00 0.00 0.00 0.00 0.00 0.00 0.00 0.00 0.00 0.00
0.02 0.02 0.05 0.08 0.12 0.22 0.35 0.41 0.42 0.40 0.35 0.30 0.25 0.24 0.29 0.34 0.41 0.49 0.57 0.65 0.67 0.67 0.69 0.70 0.62 0.55 0.42 0.19 0.04 0.01 0.00 0.00 0.00 0.00 0.00 0.00 0.00 0.00 0.00 0.00 0.00 0.00 0.00
0.01 0.02 0.05 0.09 0.12 0.18 0.29 0.38 0.48 0.54 0.50 0.41 0.33 0.27 0.25 0.30 0.36 0.43 0.43 0.45 0.55 0.58 0.60 0.62 0.53 0.45 0.39 0.22 0.06 0.01 0.00 0.00 0.00 0.00 0.00 0.00 0.00 0.00 0.00 0.00 0.00 0.00 0.00